Simultaneous Nadir Overpasses (SNOs) Predictions

Prediction of SNOs between METOP-A and TERRA Satellite Orbit:

Table of predicted SNOs for the next 14.0 days since TLE Epoch: 3/31/2017
Index Date (METOP-A) Time (METOP-A) Lat,Lon (METOP-A) SZA (METOP-A ) Date (TERRA) Time (TERRA) Lat,Lon (TERRA) SZA (TERRA ) Distance(km) Time Diff (sec)
1 04/02/2017 00:48:03 -81.33, 35.89 100.84 04/02/2017 00:48:29 -81.34, 35.95 100.81 1.23 26
2 04/02/2017 01:38:42 81.34,-156.19 79.23 04/02/2017 01:37:55 81.34,-156.29 79.19 1.80 47
3 04/04/2017 20:22:25 -81.33, 102.36 101.88 04/04/2017 20:22:44 -81.34, 102.37 101.86 0.47 19
4 04/04/2017 21:13:04 81.34, -89.76 78.18 04/04/2017 21:12:10 81.34, -89.90 78.14 2.30 54
5 04/07/2017 15:56:47 -81.33, 168.80 102.90 04/07/2017 15:56:59 -81.33, 168.73 102.91 1.17 12
6 04/07/2017 16:47:27 81.34, -23.74 77.10 04/07/2017 16:46:25 81.34, -23.56 77.09 3.10 62
7 04/10/2017 11:31:08 -81.33,-124.77 103.92 04/10/2017 11:31:13 -81.33,-124.96 103.95 3.33 5
8 04/10/2017 12:21:47 81.34, 43.05 76.13 04/10/2017 12:20:38 81.35, 43.11 76.11 1.42 69
9 04/13/2017 06:14:49 81.33, 134.14 75.08 04/13/2017 06:16:00 81.34, 134.04 75.10 1.85 71




NCC Satellite Simultaneous Nadir Overpasses (SNOs) Prediction Service
